ASTRA 1L

Last updated on Tue Sep 22 2026 00:03:11 GMT+0000 (Coordinated Universal Time)

1 31306U 07016A 26264.34165002 -.00000187 00000+0 00000+0 0 9993 2 31306 1.5624 80.5929 0004885 98.8298 279.3207 1.00272254 45951
UTC large
Height (km)
Speed (km/s)
/
Latitude / Longitude
Inclination (degrees)
Orbital Period (minutes)
Azimuth
Elevation
Range (km)
Doppler Factor

Next 0 passes for location: London (51.5072 / 0.1276)

No passes found over London.
ASTRA 1L